User: anonymous   Login
Location: Lafig�re
(44.4503°N, 4.0357°E)
Time: 10:04:47
(UTC+00:00)
Language:

BREEZE-M R/B - Orbit

View from above orbital plane
View from above orbital plane
View from above satellite
View from above satellite

Ground track
Ground track

The orbit data is extracted from the following two-line orbital elements,

1 38344U 12026C   21166.01318340 -.00000067  00000-0  58186-4 0  9995
2 38344  49.2860 110.0773 6267595 214.9786  80.4605  3.58927973114775
Epoch (UTC): 15 June 2021 00:18:59
Eccentricity: 0.6267595
inclination: 49.2860°
perigee height: 347 km
apogee height: 22934 km
right ascension of ascending node: 110.0773°
argument of perigee: 214.9786°
revolutions per day: 3.58927973
mean anomaly at epoch: 80.4605°
orbit number at epoch: 11477

The dashed part of the orbit path shows where the satellite is in the earth's shadow,  

DLR